Overview Statistics Trail Chart Weather Telemetry Raw packets
 

This is the latest recevied weather packets stored in our database for station/object KD8DNS. If no packets are shown the sender has not sent any weather packets the latest 10 day(s).

<< 110 111 112 113 114 >>
Time Temp. Humidity Pressure Rain* Wind** Luminosity Snow
1787832411 18.89° C 97% 1017.3 hPa 0 mm - 36 W/m² -
1787832106 18.89° C 98% 1017.5 hPa 0 mm - 25 W/m² -
1787831807 18.33° C 98% 1017.3 hPa 0 mm - 29 W/m² -
1787831499 18.33° C 98% 1017 hPa 0 mm - 43 W/m² -
1787831197 18.33° C 98% 1016.9 hPa 0 mm - 30 W/m² -
1787830893 17.78° C 98% 1016.8 hPa 0 mm - 23 W/m² -
1787830593 17.78° C 98% 1016.7 hPa 0 mm - 19 W/m² -
1787830286 17.78° C 98% 1016.7 hPa 0 mm - 16 W/m² -
1787829981 17.78° C 98% 1016.6 hPa 0 mm - 12 W/m² -
1787829680 17.78° C 98% 1016.5 hPa 0 mm - 10 W/m² -
1787829375 17.78° C 98% 1016.7 hPa 0 mm - 7 W/m² -
1787829072 17.78° C 98% 1016.6 hPa 0 mm - 4 W/m² -
1787828767 17.78° C 98% 1016.8 hPa 0 mm - 2 W/m² -
1787828463 17.78° C 98% 1016.7 hPa 0 mm - 0 W/m² -
1787828162 17.78° C 98% 1016.6 hPa 0 mm - 0 W/m² -
1787827861 17.78° C 98% 1016.6 hPa 0 mm - 0 W/m² -
1787827557 17.78° C 98% 1016.6 hPa 0 mm - 0 W/m² -
1787827256 17.78° C 98% 1016.7 hPa 0 mm - 0 W/m² -
1787826955 17.78° C 98% 1016.8 hPa 0 mm - 0 W/m² -
1787826650 17.78° C 98% 1016.7 hPa 0 mm - 0 W/m² -
1787826346 17.78° C 98% 1016.6 hPa 0 mm - 0 W/m² -
1787826043 18.33° C 97% 1016.7 hPa 0 mm - 0 W/m² -
1787825740 17.78° C 97% 1016.5 hPa 0 mm - 0 W/m² -
1787825440 17.78° C 97% 1016.5 hPa 0 mm - 0 W/m² -
1787825139 17.78° C 97% 1016.5 hPa 0 mm - 0 W/m² -

* Rain latest hour (hover to see other rain measurements)
** Current wind speed in m/s (hover to see current wind gust speed)